Location: Góry Miechowskie
(50.3599°N, 20.1803°E)
Time: 22:51:47
(UTC+00:00)

Tiros 1 despin weight - Pass Details

Date: 16 September 2024
Orbit: 572 x 614 km, 48.2° (Epoch: 12 October)

Event Time Altitude Azimuth Distance (km) Brightness Sun altitude
Rises 07:21:26 0° 279° (W) 2,888 ? 27.2°
Reaches altitude 10° 07:24:14 10° 263° (W) 1,978 ? 27.6°
Maximum altitude 07:27:31 20° 216° (SW) 1,435 ? 28.0°
Drops below altitude 10° 07:30:47 10° 170° (S) 1,960 ? 28.5°
Sets 07:33:34 0° 153° (SSE) 2,854 ? 28.8°
